Year,Month,Day,Hour,Minute,Value (Times are PST for temperature in C)
2017,04,16,00,00,3.80
2017,04,16,00,01,3.80
2017,04,16,00,02,3.80
2017,04,16,00,03,3.80
2017,04,16,00,04,3.80
2017,04,16,00,05,3.80
2017,04,16,00,06,3.80
2017,04,16,00,07,3.80
2017,04,16,00,08,3.80
2017,04,16,00,09,3.80
2017,04,16,00,10,3.80
2017,04,16,00,11,3.80
2017,04,16,00,12,3.80
2017,04,16,00,13,3.80
2017,04,16,00,14,3.80
2017,04,16,00,15,3.80
2017,04,16,00,16,3.80
2017,04,16,00,17,3.80
2017,04,16,00,18,3.70
2017,04,16,00,19,3.70
2017,04,16,00,20,3.70
2017,04,16,00,21,3.70
2017,04,16,00,22,3.70
2017,04,16,00,23,3.70
2017,04,16,00,24,3.70
2017,04,16,00,25,3.70
2017,04,16,00,26,3.60
2017,04,16,00,27,3.60
2017,04,16,00,28,3.60
2017,04,16,00,29,3.60
2017,04,16,00,30,3.60
2017,04,16,00,31,3.60
2017,04,16,00,32,3.60
2017,04,16,00,33,3.60
2017,04,16,00,34,3.60
2017,04,16,00,35,3.60
2017,04,16,00,36,3.60
2017,04,16,00,37,3.60
2017,04,16,00,38,3.50
2017,04,16,00,39,3.50
2017,04,16,00,40,3.50
2017,04,16,00,41,3.50
2017,04,16,00,42,3.50
2017,04,16,00,43,3.50
2017,04,16,00,44,3.50
2017,04,16,00,45,3.50
2017,04,16,00,46,3.40
2017,04,16,00,47,3.40
2017,04,16,00,48,3.40
2017,04,16,00,49,3.40
2017,04,16,00,50,3.40
2017,04,16,00,51,3.40
2017,04,16,00,52,3.40
2017,04,16,00,53,3.40
2017,04,16,00,54,3.40
2017,04,16,00,55,3.40
2017,04,16,00,56,3.40
2017,04,16,00,57,3.30
2017,04,16,00,58,3.30
2017,04,16,00,59,3.30
2017,04,16,01,00,3.30
2017,04,16,01,01,3.30
2017,04,16,01,02,3.30
2017,04,16,01,03,3.30
2017,04,16,01,04,3.20
2017,04,16,01,05,3.20
2017,04,16,01,06,3.20
2017,04,16,01,07,3.20
2017,04,16,01,08,3.20
2017,04,16,01,09,3.20
2017,04,16,01,10,3.20
2017,04,16,01,11,3.20
2017,04,16,01,12,3.20
2017,04,16,01,13,3.20
2017,04,16,01,14,3.20
2017,04,16,01,15,3.10
2017,04,16,01,16,3.10
2017,04,16,01,17,3.10
2017,04,16,01,18,3.10
2017,04,16,01,19,3.10
2017,04,16,01,20,3.10
2017,04,16,01,21,3.10
2017,04,16,01,22,3.10
2017,04,16,01,23,3.10
2017,04,16,01,24,3.10
2017,04,16,01,25,3.10
2017,04,16,01,26,3.10
2017,04,16,01,27,3.10
2017,04,16,01,28,3.10
2017,04,16,01,29,3.10
2017,04,16,01,30,3.10
2017,04,16,01,31,3.10
2017,04,16,01,32,3.10
2017,04,16,01,33,3.00
2017,04,16,01,34,3.00
2017,04,16,01,35,3.00
2017,04,16,01,36,3.10
2017,04,16,01,37,3.10
2017,04,16,01,38,3.10
2017,04,16,01,39,3.10
2017,04,16,01,40,3.10
2017,04,16,01,41,3.00
2017,04,16,01,42,3.00
2017,04,16,01,43,3.00
2017,04,16,01,44,3.00
2017,04,16,01,45,3.00
2017,04,16,01,46,3.00
2017,04,16,01,47,2.90
2017,04,16,01,48,2.90
2017,04,16,01,49,2.90
2017,04,16,01,50,2.90
2017,04,16,01,51,2.90
2017,04,16,01,52,2.90
2017,04,16,01,53,2.90
2017,04,16,01,54,2.80
2017,04,16,01,55,2.80
2017,04,16,01,56,2.80
2017,04,16,01,57,2.80
2017,04,16,01,58,2.80
2017,04,16,01,59,2.80
2017,04,16,02,00,2.90
2017,04,16,02,01,2.90
2017,04,16,02,02,2.90
2017,04,16,02,03,3.00
2017,04,16,02,04,3.10
2017,04,16,02,05,3.10
2017,04,16,02,06,3.20
2017,04,16,02,07,3.30
2017,04,16,02,08,3.40
2017,04,16,02,09,3.50
2017,04,16,02,10,3.50
2017,04,16,02,11,3.60
2017,04,16,02,12,3.60
2017,04,16,02,13,3.60
2017,04,16,02,14,3.60
2017,04,16,02,15,3.60
2017,04,16,02,16,3.60
2017,04,16,02,17,3.60
2017,04,16,02,18,3.60
2017,04,16,02,19,3.60
2017,04,16,02,20,3.60
2017,04,16,02,21,3.60
2017,04,16,02,22,3.60
2017,04,16,02,23,3.60
2017,04,16,02,24,3.70
2017,04,16,02,25,3.70
2017,04,16,02,26,3.70
2017,04,16,02,27,3.70
2017,04,16,02,28,3.70
2017,04,16,02,29,3.70
2017,04,16,02,30,3.70
2017,04,16,02,31,3.70
2017,04,16,02,32,3.70
2017,04,16,02,33,3.70
2017,04,16,02,34,3.80
2017,04,16,02,35,3.80
2017,04,16,02,36,3.80
2017,04,16,02,37,3.80
2017,04,16,02,38,3.80
2017,04,16,02,39,3.80
2017,04,16,02,40,3.80
2017,04,16,02,41,3.90
2017,04,16,02,42,3.90
2017,04,16,02,43,3.90
2017,04,16,02,44,3.90
2017,04,16,02,45,3.90
2017,04,16,02,46,4.00
2017,04,16,02,47,4.00
2017,04,16,02,48,4.00
2017,04,16,02,49,4.00
2017,04,16,02,50,4.00
2017,04,16,02,51,4.10
2017,04,16,02,52,4.10
2017,04,16,02,53,4.10
2017,04,16,02,54,4.10
2017,04,16,02,55,4.20
2017,04,16,02,56,4.20
2017,04,16,02,57,4.20
2017,04,16,02,58,4.20
2017,04,16,02,59,4.20
2017,04,16,03,00,4.20
2017,04,16,03,01,4.20
2017,04,16,03,02,4.20
2017,04,16,03,03,4.20
2017,04,16,03,04,4.20
2017,04,16,03,05,4.20
2017,04,16,03,06,4.20
2017,04,16,03,07,4.20
2017,04,16,03,08,4.20
2017,04,16,03,09,4.20
2017,04,16,03,10,4.20
2017,04,16,03,11,4.20
2017,04,16,03,12,4.20
2017,04,16,03,13,4.20
2017,04,16,03,14,4.20
2017,04,16,03,15,4.20
2017,04,16,03,16,4.20
2017,04,16,03,17,4.20
2017,04,16,03,18,4.20
2017,04,16,03,19,4.30
2017,04,16,03,20,4.40
2017,04,16,03,21,4.50
2017,04,16,03,22,4.60
2017,04,16,03,23,4.60
2017,04,16,03,24,4.70
2017,04,16,03,25,4.70
2017,04,16,03,26,4.70
2017,04,16,03,27,4.70
2017,04,16,03,28,4.70
2017,04,16,03,29,4.70
2017,04,16,03,30,4.70
2017,04,16,03,31,4.70
2017,04,16,03,32,4.70
2017,04,16,03,33,4.60
2017,04,16,03,34,4.60
2017,04,16,03,35,4.60
2017,04,16,03,36,4.50
2017,04,16,03,37,4.50
2017,04,16,03,38,4.50
2017,04,16,03,39,4.50
2017,04,16,03,40,4.40
2017,04,16,03,41,4.40
2017,04,16,03,42,4.40
2017,04,16,03,43,4.40
2017,04,16,03,44,4.40
2017,04,16,03,45,4.40
2017,04,16,03,46,4.40
2017,04,16,03,47,4.50
2017,04,16,03,48,4.60
2017,04,16,03,49,4.60
2017,04,16,03,50,4.60
2017,04,16,03,51,4.70
2017,04,16,03,52,4.70
2017,04,16,03,53,4.70
2017,04,16,03,54,4.70
2017,04,16,03,55,4.70
2017,04,16,03,56,4.70
2017,04,16,03,57,4.70
2017,04,16,03,58,4.70
2017,04,16,03,59,4.80
2017,04,16,04,00,4.80
2017,04,16,04,01,4.80
2017,04,16,04,02,4.80
2017,04,16,04,03,4.80
2017,04,16,04,04,4.90
2017,04,16,04,05,4.90
2017,04,16,04,06,4.90
2017,04,16,04,07,4.90
2017,04,16,04,08,4.90
2017,04,16,04,09,4.90
2017,04,16,04,10,4.90
2017,04,16,04,11,5.00
2017,04,16,04,12,5.00
2017,04,16,04,13,5.00
2017,04,16,04,14,5.00
2017,04,16,04,15,5.10
2017,04,16,04,16,5.10
2017,04,16,04,17,5.10
2017,04,16,04,18,5.10
2017,04,16,04,19,5.10
2017,04,16,04,20,5.10
2017,04,16,04,21,5.10
2017,04,16,04,22,5.10
2017,04,16,04,23,5.10
2017,04,16,04,24,5.10
2017,04,16,04,25,5.10
2017,04,16,04,26,5.10
2017,04,16,04,27,5.10
2017,04,16,04,28,5.10
2017,04,16,04,29,5.10
2017,04,16,04,30,5.10
2017,04,16,04,31,5.10
2017,04,16,04,32,5.10
2017,04,16,04,33,5.20
2017,04,16,04,34,5.20
2017,04,16,04,35,5.20
2017,04,16,04,36,5.20
2017,04,16,04,37,5.20
2017,04,16,04,38,5.30
2017,04,16,04,39,5.30
2017,04,16,04,40,5.30
2017,04,16,04,41,5.30
2017,04,16,04,42,5.30
2017,04,16,04,43,5.40
2017,04,16,04,44,5.40
2017,04,16,04,45,5.40
2017,04,16,04,46,5.50
2017,04,16,04,47,5.50
2017,04,16,04,48,5.60
2017,04,16,04,49,5.60
2017,04,16,04,50,5.70
2017,04,16,04,51,5.70
2017,04,16,04,52,5.80
2017,04,16,04,53,5.80
2017,04,16,04,54,5.80
2017,04,16,04,55,5.90
2017,04,16,04,56,5.90
2017,04,16,04,57,6.00
2017,04,16,04,58,6.00
2017,04,16,04,59,6.10
2017,04,16,05,00,6.10
2017,04,16,05,01,6.10
2017,04,16,05,02,6.10
2017,04,16,05,03,6.20
2017,04,16,05,04,6.20
2017,04,16,05,05,6.20
2017,04,16,05,06,6.20
2017,04,16,05,07,6.20
2017,04,16,05,08,6.20
2017,04,16,05,09,6.20
2017,04,16,05,10,6.20
2017,04,16,05,11,6.20
2017,04,16,05,12,6.20
2017,04,16,05,13,6.30
2017,04,16,05,14,6.30
2017,04,16,05,15,6.20
2017,04,16,05,16,6.20
2017,04,16,05,17,6.20
2017,04,16,05,18,6.20
2017,04,16,05,19,6.20
2017,04,16,05,20,6.20
2017,04,16,05,21,6.20
2017,04,16,05,22,6.20
2017,04,16,05,23,6.20
2017,04,16,05,24,6.20
2017,04,16,05,25,6.20
2017,04,16,05,26,6.20
2017,04,16,05,27,6.20
2017,04,16,05,28,6.20
2017,04,16,05,29,6.20
2017,04,16,05,30,6.20
2017,04,16,05,31,6.20
2017,04,16,05,32,6.30
2017,04,16,05,33,6.30
2017,04,16,05,34,6.30
2017,04,16,05,35,6.30
2017,04,16,05,36,6.30
2017,04,16,05,37,6.30
2017,04,16,05,38,6.20
2017,04,16,05,39,6.30
2017,04,16,05,40,6.30
2017,04,16,05,41,6.30
2017,04,16,05,42,6.30
2017,04,16,05,43,6.30
2017,04,16,05,44,6.30
2017,04,16,05,45,6.30
2017,04,16,05,46,6.30
2017,04,16,05,47,6.30
2017,04,16,05,48,6.30
2017,04,16,05,49,6.30
2017,04,16,05,50,6.30
2017,04,16,05,51,6.30
2017,04,16,05,52,6.30
2017,04,16,05,53,6.30
2017,04,16,05,54,6.30
2017,04,16,05,55,6.20
2017,04,16,05,56,6.20
2017,04,16,05,57,6.20
2017,04,16,05,58,6.20
2017,04,16,05,59,6.20
2017,04,16,06,00,6.20
2017,04,16,06,01,6.20
2017,04,16,06,02,6.20
2017,04,16,06,03,6.20
2017,04,16,06,04,6.20
2017,04,16,06,05,6.20
2017,04,16,06,06,6.20
2017,04,16,06,07,6.20
2017,04,16,06,08,6.20
2017,04,16,06,09,6.20
2017,04,16,06,10,6.20
2017,04,16,06,11,6.20
2017,04,16,06,12,6.20
2017,04,16,06,13,6.20
2017,04,16,06,14,6.20
2017,04,16,06,15,6.20
2017,04,16,06,16,6.20
2017,04,16,06,17,6.20
2017,04,16,06,18,6.20
2017,04,16,06,19,6.20
2017,04,16,06,20,6.20
2017,04,16,06,21,6.20
2017,04,16,06,22,6.20
2017,04,16,06,23,6.20
2017,04,16,06,24,6.20
2017,04,16,06,25,6.20
2017,04,16,06,26,6.20
2017,04,16,06,27,6.20
2017,04,16,06,28,6.20
2017,04,16,06,29,6.20
2017,04,16,06,30,6.20
2017,04,16,06,31,6.20
2017,04,16,06,32,6.20
2017,04,16,06,33,6.20
2017,04,16,06,34,6.20
2017,04,16,06,35,6.20
2017,04,16,06,36,6.20
2017,04,16,06,37,6.20
2017,04,16,06,38,6.20
2017,04,16,06,39,6.20
2017,04,16,06,40,6.20
2017,04,16,06,41,6.20
2017,04,16,06,42,6.20
2017,04,16,06,43,6.20
2017,04,16,06,44,6.30
2017,04,16,06,45,6.30
2017,04,16,06,46,6.30
2017,04,16,06,47,6.30
2017,04,16,06,48,6.30
2017,04,16,06,49,6.30
2017,04,16,06,50,6.30
2017,04,16,06,51,6.30
2017,04,16,06,52,6.30
2017,04,16,06,53,6.30
2017,04,16,06,54,6.40
2017,04,16,06,55,6.40
2017,04,16,06,56,6.40
2017,04,16,06,57,6.30
2017,04,16,06,58,6.30
2017,04,16,06,59,6.30
2017,04,16,07,00,6.30
2017,04,16,07,01,6.30
2017,04,16,07,02,6.30
2017,04,16,07,03,6.30
2017,04,16,07,04,6.30
2017,04,16,07,05,6.30
2017,04,16,07,06,6.40
2017,04,16,07,07,6.40
2017,04,16,07,08,6.40
2017,04,16,07,09,6.40
2017,04,16,07,10,6.40
2017,04,16,07,11,6.40
2017,04,16,07,12,6.50
2017,04,16,07,13,6.50
2017,04,16,07,14,6.60
2017,04,16,07,15,6.60
2017,04,16,07,16,6.60
2017,04,16,07,17,6.60
2017,04,16,07,18,6.60
2017,04,16,07,19,6.70
2017,04,16,07,20,6.70
2017,04,16,07,21,6.70
2017,04,16,07,22,6.70
2017,04,16,07,23,6.70
2017,04,16,07,24,6.80
2017,04,16,07,25,6.80
2017,04,16,07,26,6.80
2017,04,16,07,27,6.80
2017,04,16,07,28,6.90
2017,04,16,07,29,6.90
2017,04,16,07,30,6.90
2017,04,16,07,31,7.00
2017,04,16,07,32,7.00
2017,04,16,07,33,7.00
2017,04,16,07,34,7.10
2017,04,16,07,35,7.10
2017,04,16,07,36,7.10
2017,04,16,07,37,7.10
2017,04,16,07,38,7.20
2017,04,16,07,39,7.20
2017,04,16,07,40,7.20
2017,04,16,07,41,7.20
2017,04,16,07,42,7.20
2017,04,16,07,43,7.30
2017,04,16,07,44,7.30
2017,04,16,07,45,7.30
2017,04,16,07,46,7.30
2017,04,16,07,47,7.40
2017,04,16,07,48,7.40
2017,04,16,07,49,7.40
2017,04,16,07,50,7.40
2017,04,16,07,51,7.40
2017,04,16,07,52,7.40
2017,04,16,07,53,7.50
2017,04,16,07,54,7.50
2017,04,16,07,55,7.50
2017,04,16,07,56,7.50
2017,04,16,07,57,7.60
2017,04,16,07,58,7.60
2017,04,16,07,59,7.60
2017,04,16,08,00,7.70
2017,04,16,08,01,7.70
2017,04,16,08,02,7.70
2017,04,16,08,03,7.70
2017,04,16,08,04,7.70
2017,04,16,08,05,7.80
2017,04,16,08,06,7.80
2017,04,16,08,07,7.80
2017,04,16,08,08,7.80
2017,04,16,08,09,7.80
2017,04,16,08,10,7.80
2017,04,16,08,11,7.80
2017,04,16,08,12,7.80
2017,04,16,08,13,7.80
2017,04,16,08,14,7.90
2017,04,16,08,15,7.90
2017,04,16,08,16,7.90
2017,04,16,08,17,7.90
2017,04,16,08,18,8.00
2017,04,16,08,19,8.00
2017,04,16,08,20,8.10
2017,04,16,08,21,8.20
2017,04,16,08,22,8.20
2017,04,16,08,23,8.30
2017,04,16,08,24,8.30
2017,04,16,08,25,8.40
2017,04,16,08,26,8.50
2017,04,16,08,27,8.50
2017,04,16,08,28,8.60
2017,04,16,08,29,8.60
2017,04,16,08,30,8.60
2017,04,16,08,31,8.50
2017,04,16,08,32,8.50
2017,04,16,08,33,8.50
2017,04,16,08,34,8.50
2017,04,16,08,35,8.50
2017,04,16,08,36,8.50
2017,04,16,08,37,8.60
2017,04,16,08,38,8.60
2017,04,16,08,39,8.60
2017,04,16,08,40,8.60
2017,04,16,08,41,8.60
2017,04,16,08,42,8.60
2017,04,16,08,43,8.70
2017,04,16,08,44,8.70
2017,04,16,08,45,8.70
2017,04,16,08,46,8.80
2017,04,16,08,47,8.80
2017,04,16,08,48,8.80
2017,04,16,08,49,8.80
2017,04,16,08,50,8.80
2017,04,16,08,51,8.80
2017,04,16,08,52,8.80
2017,04,16,08,53,8.90
2017,04,16,08,54,8.90
2017,04,16,08,55,9.00
2017,04,16,08,56,9.00
2017,04,16,08,57,9.10
2017,04,16,08,58,9.10
2017,04,16,08,59,9.20
2017,04,16,09,00,9.20
2017,04,16,09,01,9.30
2017,04,16,09,02,9.30
2017,04,16,09,03,9.40
2017,04,16,09,04,9.40
2017,04,16,09,05,9.40
2017,04,16,09,06,9.50
2017,04,16,09,07,9.50
2017,04,16,09,08,9.60
2017,04,16,09,09,9.60
2017,04,16,09,10,9.60
2017,04,16,09,11,9.60
2017,04,16,09,12,9.60
2017,04,16,09,13,9.70
2017,04,16,09,14,9.70
2017,04,16,09,15,9.70
2017,04,16,09,16,9.70
2017,04,16,09,17,9.70
2017,04,16,09,18,9.70
2017,04,16,09,19,9.70
2017,04,16,09,20,9.70
2017,04,16,09,21,9.80
2017,04,16,09,22,9.70
2017,04,16,09,23,9.70
2017,04,16,09,24,9.70
2017,04,16,09,25,9.70
2017,04,16,09,26,9.70
2017,04,16,09,27,9.70
2017,04,16,09,28,9.80
2017,04,16,09,29,9.80
2017,04,16,09,30,9.70
2017,04,16,09,31,9.70
2017,04,16,09,32,9.60
2017,04,16,09,33,9.60
2017,04,16,09,34,9.60
2017,04,16,09,35,9.60
2017,04,16,09,36,9.70
2017,04,16,09,37,9.80
2017,04,16,09,38,9.80
2017,04,16,09,39,9.80
2017,04,16,09,40,9.90
2017,04,16,09,41,9.90
2017,04,16,09,42,10.00
2017,04,16,09,43,10.00
2017,04,16,09,44,10.00
2017,04,16,09,45,10.00
2017,04,16,09,46,10.10
2017,04,16,09,47,10.10
2017,04,16,09,48,10.10
2017,04,16,09,49,10.20
2017,04,16,09,50,10.20
2017,04,16,09,51,10.20
2017,04,16,09,52,10.20
2017,04,16,09,53,10.20
2017,04,16,09,54,10.20
2017,04,16,09,55,10.20
2017,04,16,09,56,10.20
2017,04,16,09,57,10.20
2017,04,16,09,58,10.20
2017,04,16,09,59,10.30
2017,04,16,10,00,10.30
2017,04,16,10,01,10.40
2017,04,16,10,02,10.30
2017,04,16,10,03,10.30
2017,04,16,10,04,10.30
2017,04,16,10,05,10.30
2017,04,16,10,06,10.30
2017,04,16,10,07,10.30
2017,04,16,10,08,10.30
2017,04,16,10,09,10.30
2017,04,16,10,10,10.40
2017,04,16,10,11,10.30
2017,04,16,10,12,10.40
2017,04,16,10,13,10.40
2017,04,16,10,14,10.40
2017,04,16,10,15,10.50
2017,04,16,10,16,10.50
2017,04,16,10,17,10.50
2017,04,16,10,18,10.50
2017,04,16,10,19,10.60
2017,04,16,10,20,10.70
2017,04,16,10,21,10.80
2017,04,16,10,22,10.80
2017,04,16,10,23,10.80
2017,04,16,10,24,10.80
2017,04,16,10,25,10.80
2017,04,16,10,26,10.70
2017,04,16,10,27,10.70
2017,04,16,10,28,10.70
2017,04,16,10,29,10.60
2017,04,16,10,30,10.60
2017,04,16,10,31,10.60
2017,04,16,10,32,10.50
2017,04,16,10,33,10.50
2017,04,16,10,34,10.50
2017,04,16,10,35,10.60
2017,04,16,10,36,10.70
2017,04,16,10,37,10.70
2017,04,16,10,38,10.80
2017,04,16,10,39,10.90
2017,04,16,10,40,10.90
2017,04,16,10,41,11.00
2017,04,16,10,42,11.00
2017,04,16,10,43,10.90
2017,04,16,10,44,10.80
2017,04,16,10,45,10.80
2017,04,16,10,46,10.80
2017,04,16,10,47,10.70
2017,04,16,10,48,10.70
2017,04,16,10,49,10.70
2017,04,16,10,50,10.70
2017,04,16,10,51,10.70
2017,04,16,10,52,10.80
2017,04,16,10,53,10.80
2017,04,16,10,54,10.80
2017,04,16,10,55,10.90
2017,04,16,10,56,10.90
2017,04,16,10,57,10.90
2017,04,16,10,58,11.00
2017,04,16,10,59,11.10
2017,04,16,11,00,11.10
2017,04,16,11,01,11.20
2017,04,16,11,02,11.20
2017,04,16,11,03,11.10
2017,04,16,11,04,11.10
2017,04,16,11,05,11.20
2017,04,16,11,06,11.30
2017,04,16,11,07,11.50
2017,04,16,11,08,11.60
2017,04,16,11,09,11.60
2017,04,16,11,10,11.60
2017,04,16,11,11,11.50
2017,04,16,11,12,11.50
2017,04,16,11,13,11.40
2017,04,16,11,14,11.40
2017,04,16,11,15,11.40
2017,04,16,11,16,11.40
2017,04,16,11,17,11.40
2017,04,16,11,18,11.40
2017,04,16,11,19,11.30
2017,04,16,11,20,11.40
2017,04,16,11,21,11.40
2017,04,16,11,22,11.40
2017,04,16,11,23,11.50
2017,04,16,11,24,11.60
2017,04,16,11,25,11.70
2017,04,16,11,26,11.70
2017,04,16,11,27,11.70
2017,04,16,11,28,11.60
2017,04,16,11,29,11.60
2017,04,16,11,30,11.70
2017,04,16,11,31,11.70
2017,04,16,11,32,11.80
2017,04,16,11,33,11.80
2017,04,16,11,34,11.90
2017,04,16,11,35,12.10
2017,04,16,11,36,12.10
2017,04,16,11,37,12.00
2017,04,16,11,38,11.90
2017,04,16,11,39,11.80
2017,04,16,11,40,11.80
2017,04,16,11,41,11.90
2017,04,16,11,42,11.90
2017,04,16,11,43,12.10
2017,04,16,11,44,12.20
2017,04,16,11,45,12.30
2017,04,16,11,46,12.30
2017,04,16,11,47,12.40
2017,04,16,11,48,12.50
2017,04,16,11,49,12.50
2017,04,16,11,50,12.60
2017,04,16,11,51,12.60
2017,04,16,11,52,12.70
2017,04,16,11,53,12.70
2017,04,16,11,54,12.80
2017,04,16,11,55,12.90
2017,04,16,11,56,13.00
2017,04,16,11,57,12.90
2017,04,16,11,58,12.80
2017,04,16,11,59,12.80
2017,04,16,12,00,12.80
2017,04,16,12,01,12.80
2017,04,16,12,02,12.90
2017,04,16,12,03,13.10
2017,04,16,12,04,13.20
2017,04,16,12,05,13.30
2017,04,16,12,06,13.20
2017,04,16,12,07,13.20
2017,04,16,12,08,13.20
2017,04,16,12,09,13.20
2017,04,16,12,10,13.30
2017,04,16,12,11,13.30
2017,04,16,12,12,13.20
2017,04,16,12,13,13.10
2017,04,16,12,14,13.00
2017,04,16,12,15,12.90
2017,04,16,12,16,13.00
2017,04,16,12,17,13.10
2017,04,16,12,18,13.20
2017,04,16,12,19,13.30
2017,04,16,12,20,13.40
2017,04,16,12,21,13.60
2017,04,16,12,22,13.80
2017,04,16,12,23,13.80
2017,04,16,12,24,13.80
2017,04,16,12,25,13.80
2017,04,16,12,26,13.80
2017,04,16,12,27,13.80
2017,04,16,12,28,13.80
2017,04,16,12,29,14.00
2017,04,16,12,30,14.10
2017,04,16,12,31,14.20
2017,04,16,12,32,14.30
2017,04,16,12,33,14.30
2017,04,16,12,34,14.10
2017,04,16,12,35,14.00
2017,04,16,12,36,13.80
2017,04,16,12,37,13.70
2017,04,16,12,38,13.50
2017,04,16,12,39,13.50
2017,04,16,12,40,13.50
2017,04,16,12,41,13.50
2017,04,16,12,42,13.40
2017,04,16,12,43,13.40
2017,04,16,12,44,13.50
2017,04,16,12,45,13.60
2017,04,16,12,46,13.80
2017,04,16,12,47,13.90
2017,04,16,12,48,14.00
2017,04,16,12,49,14.00
2017,04,16,12,50,13.90
2017,04,16,12,51,13.80
2017,04,16,12,52,13.80
2017,04,16,12,53,13.70
2017,04,16,12,54,13.80
2017,04,16,12,55,13.90
2017,04,16,12,56,13.90
2017,04,16,12,57,13.90
2017,04,16,12,58,13.80
2017,04,16,12,59,13.80
2017,04,16,13,00,13.80
2017,04,16,13,01,13.80
2017,04,16,13,02,13.60
2017,04,16,13,03,13.60
2017,04,16,13,04,13.70
2017,04,16,13,05,13.70
2017,04,16,13,06,13.70
2017,04,16,13,07,13.70
2017,04,16,13,08,13.70
2017,04,16,13,09,13.70
2017,04,16,13,10,13.80
2017,04,16,13,11,13.80
2017,04,16,13,12,13.90
2017,04,16,13,13,14.00
2017,04,16,13,14,14.00
2017,04,16,13,15,13.90
2017,04,16,13,16,13.90
2017,04,16,13,17,13.90
2017,04,16,13,18,13.90
2017,04,16,13,19,13.90
2017,04,16,13,20,13.90
2017,04,16,13,21,14.00
2017,04,16,13,22,14.10
2017,04,16,13,23,14.20
2017,04,16,13,24,14.30
2017,04,16,13,25,14.40
2017,04,16,13,26,14.50
2017,04,16,13,27,14.60
2017,04,16,13,28,14.70
2017,04,16,13,29,14.80
2017,04,16,13,30,14.80
2017,04,16,13,31,14.70
2017,04,16,13,32,14.70
2017,04,16,13,33,14.80
2017,04,16,13,34,14.90
2017,04,16,13,35,15.00
2017,04,16,13,36,15.00
2017,04,16,13,37,15.10
2017,04,16,13,38,15.20
2017,04,16,13,39,15.20
2017,04,16,13,40,15.10
2017,04,16,13,41,14.90
2017,04,16,13,42,14.80
2017,04,16,13,43,14.80
2017,04,16,13,44,14.80
2017,04,16,13,45,14.80
2017,04,16,13,46,14.80
2017,04,16,13,47,14.90
2017,04,16,13,48,14.90
2017,04,16,13,49,14.90
2017,04,16,13,50,14.90
2017,04,16,13,51,15.00
2017,04,16,13,52,15.10
2017,04,16,13,53,15.20
2017,04,16,13,54,15.30
2017,04,16,13,55,15.40
2017,04,16,13,56,15.50
2017,04,16,13,57,15.60
2017,04,16,13,58,15.50
2017,04,16,13,59,15.50
2017,04,16,14,00,15.50
2017,04,16,14,01,15.60
2017,04,16,14,02,15.50
2017,04,16,14,03,15.40
2017,04,16,14,04,15.40
2017,04,16,14,05,15.40
2017,04,16,14,06,15.50
2017,04,16,14,07,15.70
2017,04,16,14,08,15.70
2017,04,16,14,09,15.60
2017,04,16,14,10,15.50
2017,04,16,14,11,15.40
2017,04,16,14,12,15.30
2017,04,16,14,13,15.30
2017,04,16,14,14,15.20
2017,04,16,14,15,15.20
2017,04,16,14,16,15.10
2017,04,16,14,17,15.10
2017,04,16,14,18,15.20
2017,04,16,14,19,15.10
2017,04,16,14,20,15.10
2017,04,16,14,21,15.20
2017,04,16,14,22,15.30
2017,04,16,14,23,15.40
2017,04,16,14,24,15.60
2017,04,16,14,25,15.70
2017,04,16,14,26,15.70
2017,04,16,14,27,15.80
2017,04,16,14,28,15.80
2017,04,16,14,29,15.80
2017,04,16,14,30,15.90
2017,04,16,14,31,15.90
2017,04,16,14,32,16.00
2017,04,16,14,33,16.00
2017,04,16,14,34,16.00
2017,04,16,14,35,16.00
2017,04,16,14,36,16.00
2017,04,16,14,37,16.10
2017,04,16,14,38,16.00
2017,04,16,14,39,16.00
2017,04,16,14,40,16.00
2017,04,16,14,41,16.00
2017,04,16,14,42,16.00
2017,04,16,14,43,16.00
2017,04,16,14,44,16.10
2017,04,16,14,45,16.10
2017,04,16,14,46,16.00
2017,04,16,14,47,15.90
2017,04,16,14,48,15.80
2017,04,16,14,49,15.80
2017,04,16,14,50,15.80
2017,04,16,14,51,15.90
2017,04,16,14,52,15.90
2017,04,16,14,53,15.90
2017,04,16,14,54,15.90
2017,04,16,14,55,16.00
2017,04,16,14,56,16.00
2017,04,16,14,57,16.10
2017,04,16,14,58,16.20
2017,04,16,14,59,16.20
2017,04,16,15,00,16.20
2017,04,16,15,01,16.30
2017,04,16,15,02,16.30
2017,04,16,15,03,16.30
2017,04,16,15,04,16.30
2017,04,16,15,05,16.20
2017,04,16,15,06,16.20
2017,04,16,15,07,16.10
2017,04,16,15,08,16.00
2017,04,16,15,09,16.00
2017,04,16,15,10,16.10
2017,04,16,15,11,16.10
2017,04,16,15,12,16.10
2017,04,16,15,13,16.00
2017,04,16,15,14,16.00
2017,04,16,15,15,15.90
2017,04,16,15,16,16.00
2017,04,16,15,17,16.00
2017,04,16,15,18,16.00
2017,04,16,15,19,16.00
2017,04,16,15,20,16.00
2017,04,16,15,21,15.90
2017,04,16,15,22,15.80
2017,04,16,15,23,15.80
2017,04,16,15,24,15.90
2017,04,16,15,25,15.90
2017,04,16,15,26,16.00
2017,04,16,15,27,16.00
2017,04,16,15,28,16.00
2017,04,16,15,29,16.10
2017,04,16,15,30,16.10
2017,04,16,15,31,16.10
2017,04,16,15,32,16.10
2017,04,16,15,33,16.10
2017,04,16,15,34,16.20
2017,04,16,15,35,16.20
2017,04,16,15,36,16.30
2017,04,16,15,37,16.40
2017,04,16,15,38,16.50
2017,04,16,15,39,16.40
2017,04,16,15,40,16.30
2017,04,16,15,41,16.20
2017,04,16,15,42,16.20
2017,04,16,15,43,16.10
2017,04,16,15,44,16.10
2017,04,16,15,45,16.20
2017,04,16,15,46,16.20
2017,04,16,15,47,16.20
2017,04,16,15,48,16.20
2017,04,16,15,49,16.20
2017,04,16,15,50,16.20
2017,04,16,15,51,16.30
2017,04,16,15,52,16.40
2017,04,16,15,53,16.50
2017,04,16,15,54,16.60
2017,04,16,15,55,16.60
2017,04,16,15,56,16.60
2017,04,16,15,57,16.50
2017,04,16,15,58,16.50
2017,04,16,15,59,16.50
2017,04,16,16,00,16.60
2017,04,16,16,01,16.70
2017,04,16,16,02,16.90
2017,04,16,16,03,17.00
2017,04,16,16,04,17.00
2017,04,16,16,05,17.00
2017,04,16,16,06,17.00
2017,04,16,16,07,16.90
2017,04,16,16,08,16.80
2017,04,16,16,09,16.90
2017,04,16,16,10,16.80
2017,04,16,16,11,16.80
2017,04,16,16,12,16.80
2017,04,16,16,13,16.90
2017,04,16,16,14,16.90
2017,04,16,16,15,17.00
2017,04,16,16,16,17.00
2017,04,16,16,17,17.00
2017,04,16,16,18,17.00
2017,04,16,16,19,17.10
2017,04,16,16,20,17.10
2017,04,16,16,21,17.10
2017,04,16,16,22,17.10
2017,04,16,16,23,17.00
2017,04,16,16,24,17.00
2017,04,16,16,25,17.00
2017,04,16,16,26,17.00
2017,04,16,16,27,17.10
2017,04,16,16,28,17.00
2017,04,16,16,29,16.90
2017,04,16,16,30,16.90
2017,04,16,16,31,16.90
2017,04,16,16,32,16.90
2017,04,16,16,33,16.90
2017,04,16,16,34,16.80
2017,04,16,16,35,16.80
2017,04,16,16,36,16.80
2017,04,16,16,37,16.90
2017,04,16,16,38,16.90
2017,04,16,16,39,16.90
2017,04,16,16,40,16.90
2017,04,16,16,41,16.90
2017,04,16,16,42,16.90
2017,04,16,16,43,16.90
2017,04,16,16,44,16.80
2017,04,16,16,45,16.80
2017,04,16,16,46,16.80
2017,04,16,16,47,16.90
2017,04,16,16,48,16.90
2017,04,16,16,49,16.80
2017,04,16,16,50,16.80
2017,04,16,16,51,16.80
2017,04,16,16,52,16.80
2017,04,16,16,53,16.80
2017,04,16,16,54,16.80
2017,04,16,16,55,16.80
2017,04,16,16,56,16.80
2017,04,16,16,57,16.80
2017,04,16,16,58,16.80
2017,04,16,16,59,16.80
2017,04,16,17,00,16.80
2017,04,16,17,01,16.80
2017,04,16,17,02,16.70
2017,04,16,17,03,16.60
2017,04,16,17,04,16.50
2017,04,16,17,05,16.40
2017,04,16,17,06,16.40
2017,04,16,17,07,16.40
2017,04,16,17,08,16.40
2017,04,16,17,09,16.40
2017,04,16,17,10,16.30
2017,04,16,17,11,16.30
2017,04,16,17,12,16.40
2017,04,16,17,13,16.40
2017,04,16,17,14,16.50
2017,04,16,17,15,16.50
2017,04,16,17,16,16.60
2017,04,16,17,17,16.50
2017,04,16,17,18,16.50
2017,04,16,17,19,16.50
2017,04,16,17,20,16.50
2017,04,16,17,21,16.40
2017,04,16,17,22,16.50
2017,04,16,17,23,16.50
2017,04,16,17,24,16.60
2017,04,16,17,25,16.60
2017,04,16,17,26,16.60
2017,04,16,17,27,16.70
2017,04,16,17,28,16.70
2017,04,16,17,29,16.70
2017,04,16,17,30,16.70
2017,04,16,17,31,16.60
2017,04,16,17,32,16.60
2017,04,16,17,33,16.50
2017,04,16,17,34,16.40
2017,04,16,17,35,16.40
2017,04,16,17,36,16.30
2017,04,16,17,37,16.40
2017,04,16,17,38,16.40
2017,04,16,17,39,16.40
2017,04,16,17,40,16.40
2017,04,16,17,41,16.50
2017,04,16,17,42,16.50
2017,04,16,17,43,16.50
2017,04,16,17,44,16.60